| time (UTC) | temp F | wind direction | speed knots | gust knots | rain 1hr in | rain 24hr in | rain mn in | humidity % | barometer mb |
| 20260905055542 | 65 | 111 | 2.6 | 0.0 | 0.00 | 0.00 | 0.00 | 85 | 1009.6 |
| 20260905055040 | 65 | 101 | 2.6 | 0.0 | 0.00 | 0.00 | 0.00 | 84 | 1009.6 |
| 20260905054551 | 66 | 107 | 0.9 | 0.0 | 0.00 | 0.00 | 0.00 | 84 | 1009.7 |
| 20260905054039 | 66 | 79 | 0.9 | 0.0 | 0.00 | 0.00 | 0.00 | 82 | 1009.7 |
| 20260905053538 | 66 | 73 | 1.7 | 0.0 | 0.00 | 0.00 | 0.00 | 82 | 1009.7 |
| 20260905053036 | 67 | 94 | 2.6 | 0.0 | 0.00 | 0.00 | 0.00 | 81 | 1009.7 |
| 20260905052538 | 67 | 73 | 3.5 | 0.0 | 0.00 | 0.00 | 0.00 | 80 | 1009.8 |
| 20260905052035 | 67 | 80 | 4.3 | 0.0 | 0.00 | 0.00 | 0.00 | 81 | 1009.8 |
| 20260905051534 | 67 | 355 | 4.3 | 0.0 | 0.00 | 0.00 | 0.00 | 78 | 1009.9 |
| 20260905051033 | 67 | 346 | 4.3 | 0.0 | 0.00 | 0.00 | 0.00 | 79 | 1009.9 |
| 20260905050534 | 67 | 346 | 5.2 | 0.0 | 0.00 | 0.00 | 0.00 | 79 | 1010.0 |
| 20260905050033 | 68 | 342 | 4.3 | 0.0 | 0.00 | 0.00 | 0.00 | 78 | 1010.0 |
| 20260905045532 | 68 | 355 | 4.3 | 0.0 | 0.00 | 0.00 | 0.00 | 79 | 1010.0 |
| 20260905045033 | 68 | 15 | 4.3 | 0.0 | 0.00 | 0.00 | 0.00 | 79 | 1009.9 |
| 20260905044532 | 68 | 9 | 4.3 | 0.0 | 0.00 | 0.00 | 0.00 | 79 | 1010.0 |
| 20260905044031 | 68 | 360 | 4.3 | 0.0 | 0.00 | 0.00 | 0.00 | 79 | 1010.0 |
| 20260905043531 | 68 | 5 | 4.3 | 0.0 | 0.00 | 0.00 | 0.00 | 77 | 1010.1 |
| 20260905043030 | 67 | 16 | 3.5 | 0.0 | 0.00 | 0.00 | 0.00 | 79 | 1010.1 |
| 20260905042529 | 67 | 15 | 3.5 | 0.0 | 0.00 | 0.00 | 0.00 | 79 | 1010.0 |
| 20260905042029 | 67 | 39 | 2.6 | 0.0 | 0.00 | 0.00 | 0.00 | 78 | 1010.0 |
| 20260905041528 | 67 | 47 | 1.7 | 0.0 | 0.00 | 0.00 | 0.00 | 77 | 1010.0 |
| 20260905041027 | 68 | 63 | 1.7 | 0.0 | 0.00 | 0.00 | 0.00 | 77 | 1010.0 |
| 20260905040527 | 68 | 96 | 1.7 | 0.0 | 0.00 | 0.00 | 0.00 | 77 | 1010.1 |
| 20260905040032 | 68 | 70 | 2.6 | 0.0 | 0.00 | 0.00 | 0.00 | 78 | 1010.0 |
| 20260905035525 | 68 | 57 | 2.6 | 0.0 | 0.00 | 0.00 | 0.00 | 76 | 1010.0 |
| 20260905035026 | 68 | 58 | 2.6 | 0.0 | 0.00 | 0.00 | 0.00 | 75 | 1010.0 |
| 20260905034530 | 68 | 5 | 3.5 | 0.0 | 0.00 | 0.00 | 0.00 | 75 | 1010.0 |
| 20260905034026 | 68 | 36 | 3.5 | 0.0 | 0.00 | 0.00 | 0.00 | 76 | 1010.0 |
| 20260905033525 | 68 | 10 | 3.5 | 0.0 | 0.00 | 0.00 | 0.00 | 78 | 1010.0 |
| 20260905033030 | 68 | 47 | 3.5 | 0.0 | 0.00 | 0.00 | 0.00 | 76 | 1009.8 |
| 20260905032525 | 68 | 28 | 3.5 | 0.0 | 0.00 | 0.00 | 0.00 | 78 | 1009.9 |
| 20260905032025 | 68 | 30 | 4.3 | 0.0 | 0.00 | 0.00 | 0.00 | 78 | 1010.0 |
| 20260905031524 | 68 | 11 | 5.2 | 0.0 | 0.00 | 0.00 | 0.00 | 79 | 1010.1 |
| 20260905031024 | 68 | 335 | 4.3 | 0.0 | 0.00 | 0.00 | 0.00 | 77 | 1010.3 |
| 20260905030524 | 68 | 319 | 2.6 | 0.0 | 0.00 | 0.00 | 0.00 | 78 | 1010.1 |
| 20260905030024 | 68 | 333 | 1.7 | 0.0 | 0.00 | 0.00 | 0.00 | 79 | 1010.0 |
| 20260905025525 | 68 | 43 | 3.5 | 0.0 | 0.00 | 0.00 | 0.00 | 78 | 1009.9 |
| 20260905025024 | 68 | 62 | 4.3 | 0.0 | 0.00 | 0.00 | 0.00 | 79 | 1009.9 |
| 20260905024524 | 68 | 338 | 4.3 | 0.0 | 0.00 | 0.00 | 0.00 | 77 | 1010.0 |
| 20260905024024 | 68 | 335 | 4.3 | 0.0 | 0.00 | 0.00 | 0.00 | 79 | 1010.0 |
| 20260905023524 | 68 | 5 | 4.3 | 0.0 | 0.00 | 0.00 | 0.00 | 77 | 1010.0 |
| 20260905023023 | 68 | 330 | 3.5 | 0.0 | 0.00 | 0.00 | 0.00 | 77 | 1010.0 |
| 20260905022525 | 67 | 331 | 3.5 | 0.0 | 0.00 | 0.00 | 0.00 | 79 | 1010.0 |
| 20260905022023 | 67 | 321 | 4.3 | 0.0 | 0.00 | 0.00 | 0.00 | 79 | 1010.1 |
| 20260905021523 | 66 | 338 | 5.2 | 0.0 | 0.00 | 0.00 | 0.00 | 81 | 1010.1 |
| 20260905021023 | 65 | 288 | 3.5 | 0.0 | 0.00 | 0.00 | 0.00 | 81 | 1010.2 |
| 20260905020522 | 65 | 287 | 1.7 | 0.0 | 0.00 | 0.00 | 0.00 | 81 | 1010.2 |
| 20260905020026 | 65 | 299 | 1.7 | 0.0 | 0.00 | 0.00 | 0.00 | 81 | 1010.3 |
| 20260905015524 | 66 | 134 | 2.6 | 0.0 | 0.00 | 0.00 | 0.00 | 82 | 1010.3 |
| 20260905015023 | 66 | 134 | 1.7 | 0.0 | 0.00 | 0.00 | 0.00 | 81 | 1010.4 |
| 20260905014522 | 67 | 135 | 0.9 | 0.0 | 0.00 | 0.00 | 0.00 | 81 | 1010.4 |
| 20260905014022 | 67 | 134 | 0.9 | 0.0 | 0.00 | 0.00 | 0.00 | 81 | 1010.4 |
| 20260905013522 | 67 | 134 | 1.7 | 0.0 | 0.00 | 0.00 | 0.00 | 81 | 1010.3 |
| 20260905013021 | 68 | 134 | 2.6 | 0.0 | 0.00 | 0.00 | 0.00 | 80 | 1010.4 |
| 20260905012521 | 68 | 128 | 1.7 | 0.0 | 0.00 | 0.00 | 0.00 | 79 | 1010.4 |
| 20260905012021 | 69 | 113 | 1.7 | 0.0 | 0.00 | 0.00 | 0.00 | 78 | 1010.3 |
| 20260905011521 | 69 | 326 | 2.6 | 0.0 | 0.00 | 0.00 | 0.00 | 78 | 1010.2 |
| 20260905011021 | 69 | 324 | 3.5 | 0.0 | 0.00 | 0.00 | 0.00 | 77 | 1010.2 |
| 20260905010521 | 69 | 335 | 3.5 | 0.0 | 0.00 | 0.00 | 0.00 | 73 | 1010.2 |
| 20260905010022 | 69 | 332 | 4.3 | 0.0 | 0.00 | 0.00 | 0.00 | 73 | 1010.2 |
| 20260905005521 | 70 | 313 | 5.2 | 0.0 | 0.00 | 0.00 | 0.00 | 74 | 1010.2 |
| 20260905005019 | 70 | 341 | 5.2 | 0.0 | 0.00 | 0.00 | 0.00 | 72 | 1010.3 |
| 20260905004521 | 70 | 319 | 5.2 | 0.0 | 0.00 | 0.00 | 0.00 | 73 | 1010.2 |
| 20260905004020 | 70 | 328 | 6.1 | 0.0 | 0.00 | 0.00 | 0.00 | 72 | 1010.3 |
| 20260905003520 | 70 | 325 | 7.0 | 0.0 | 0.00 | 0.00 | 0.00 | 71 | 1010.2 |
| 20260905003020 | 70 | 324 | 7.8 | 0.0 | 0.00 | 0.00 | 0.00 | 71 | 1010.0 |
| 20260905002520 | 71 | 321 | 8.7 | 0.0 | 0.00 | 0.00 | 0.00 | 70 | 1009.9 |
| 20260905002020 | 71 | 312 | 8.7 | 0.0 | 0.00 | 0.00 | 0.00 | 72 | 1009.9 |
| 20260905001520 | 71 | 313 | 9.6 | 0.0 | 0.00 | 0.00 | 0.00 | 70 | 1009.9 |
| 20260905001023 | 71 | 312 | 9.6 | 0.0 | 0.00 | 0.00 | 0.00 | 72 | 1009.9 |
| 20260905000519 | 71 | 305 | 9.6 | 0.0 | 0.00 | 0.00 | 0.00 | 70 | 1009.8 |
| 20260905000019 | 71 | 302 | 9.6 | 0.0 | 0.00 | 0.00 | 0.00 | 71 | 1009.6 |
| 20260904235519 | 71 | 306 | 10.4 | 0.0 | 0.00 | 0.00 | 0.00 | 70 | 1009.6 |
| 20260904235021 | 72 | 299 | 9.6 | 0.0 | 0.00 | 0.00 | 0.00 | 70 | 1009.5 |
| 20260904234521 | 72 | 302 | 9.6 | 0.0 | 0.00 | 0.00 | 0.00 | 71 | 1009.7 |
| 20260904234019 | 72 | 303 | 7.8 | 0.0 | 0.00 | 0.00 | 0.00 | 70 | 1009.7 |
| 20260904233518 | 72 | 322 | 6.1 | 0.0 | 0.00 | 0.00 | 0.00 | 75 | 1009.5 |
| 20260904233018 | 72 | 317 | 6.1 | 0.0 | 0.00 | 0.00 | 0.00 | 73 | 1009.4 |
| 20260904232518 | 72 | 317 | 6.1 | 0.0 | 0.00 | 0.00 | 0.00 | 73 | 1009.4 |
| 20260904232017 | 72 | 327 | 7.0 | 0.0 | 0.00 | 0.00 | 0.00 | 73 | 1009.4 |
| 20260904231518 | 73 | 321 | 7.0 | 0.0 | 0.00 | 0.00 | 0.00 | 71 | 1009.4 |
| 20260904231017 | 73 | 319 | 7.8 | 0.0 | 0.00 | 0.00 | 0.00 | 70 | 1009.2 |
| 20260904230517 | 73 | 309 | 7.8 | 0.0 | 0.00 | 0.00 | 0.00 | 71 | 1009.3 |
| 20260904230029 | 73 | 317 | 6.1 | 0.0 | 0.00 | 0.00 | 0.00 | 73 | 1009.3 |
| 20260904225516 | 73 | 314 | 5.2 | 0.0 | 0.00 | 0.00 | 0.00 | 73 | 1009.3 |
| 20260904225017 | 73 | 315 | 5.2 | 0.0 | 0.00 | 0.00 | 0.00 | 72 | 1009.1 |
| 20260904224525 | 73 | 318 | 6.1 | 0.0 | 0.00 | 0.00 | 0.00 | 73 | 1009.2 |
| 20260904224017 | 73 | 325 | 6.1 | 0.0 | 0.00 | 0.00 | 0.00 | 72 | 1009.2 |
| 20260904223520 | 73 | 336 | 7.0 | 0.0 | 0.00 | 0.00 | 0.00 | 69 | 1009.2 |
| 20260904223016 | 73 | 337 | 7.0 | 0.0 | 0.00 | 0.00 | 0.00 | 69 | 1009.0 |
| 20260904222520 | 73 | 324 | 7.0 | 0.0 | 0.00 | 0.00 | 0.00 | 67 | 1008.9 |
| 20260904222016 | 73 | 324 | 6.1 | 0.0 | 0.00 | 0.00 | 0.00 | 67 | 1009.0 |
| 20260904221522 | 74 | 325 | 6.1 | 0.0 | 0.00 | 0.00 | 0.00 | 70 | 1008.9 |
| 20260904221016 | 74 | 319 | 6.1 | 0.0 | 0.00 | 0.00 | 0.00 | 69 | 1008.9 |
| 20260904220515 | 74 | 324 | 7.0 | 0.0 | 0.00 | 0.00 | 0.00 | 68 | 1008.8 |
| 20260904220015 | 74 | 310 | 7.8 | 0.0 | 0.00 | 0.00 | 0.00 | 68 | 1008.7 |
| 20260904215514 | 74 | 319 | 8.7 | 0.0 | 0.00 | 0.00 | 0.00 | 68 | 1008.8 |
| 20260904215015 | 75 | 329 | 7.8 | 0.0 | 0.00 | 0.00 | 0.00 | 64 | 1008.9 |
| 20260904214520 | 75 | 323 | 7.8 | 0.0 | 0.00 | 0.00 | 0.00 | 66 | 1008.8 |
| 20260904214015 | 75 | 305 | 8.7 | 0.0 | 0.00 | 0.00 | 0.00 | 66 | 1008.7 |
| 20260904213515 | 75 | 304 | 7.8 | 0.0 | 0.00 | 0.00 | 0.00 | 67 | 1008.6 |
| 20260904213017 | 75 | 300 | 7.8 | 0.0 | 0.00 | 0.00 | 0.00 | 68 | 1008.7 |
| 20260904212515 | 75 | 306 | 9.6 | 0.0 | 0.00 | 0.00 | 0.00 | 66 | 1008.6 |
| 20260904212014 | 76 | 291 | 10.4 | 0.0 | 0.00 | 0.00 | 0.00 | 70 | 1008.7 |
| 20260904211514 | 76 | 289 | 10.4 | 0.0 | 0.00 | 0.00 | 0.00 | 69 | 1008.6 |
| 20260904211013 | 76 | 289 | 12.2 | 0.0 | 0.00 | 0.00 | 0.00 | 67 | 1008.7 |
| 20260904210513 | 76 | 287 | 13.0 | 0.0 | 0.00 | 0.00 | 0.00 | 64 | 1008.9 |
| 20260904210012 | 76 | 285 | 12.2 | 0.0 | 0.00 | 0.00 | 0.00 | 66 | 1008.9 |
| 20260904205512 | 76 | 291 | 12.2 | 0.0 | 0.00 | 0.00 | 0.00 | 63 | 1008.9 |
| 20260904205010 | 76 | 302 | 13.9 | 0.0 | 0.00 | 0.00 | 0.00 | 61 | 1009.0 |
| 20260904204512 | 76 | 297 | 13.0 | 0.0 | 0.00 | 0.00 | 0.00 | 61 | 1009.0 |
| 20260904204011 | 76 | 286 | 12.2 | 0.0 | 0.00 | 0.00 | 0.00 | 65 | 1009.0 |
| 20260904203510 | 76 | 295 | 13.0 | 0.0 | 0.00 | 0.00 | 0.00 | 63 | 1009.1 |
| 20260904203010 | 76 | 297 | 13.9 | 0.0 | 0.00 | 0.00 | 0.00 | 62 | 1009.1 |
| 20260904202509 | 76 | 294 | 13.9 | 0.0 | 0.00 | 0.00 | 0.00 | 62 | 1009.0 |
| 20260904202008 | 76 | 302 | 12.2 | 0.0 | 0.00 | 0.00 | 0.00 | 61 | 1009.0 |
| 20260904201508 | 76 | 291 | 12.2 | 0.0 | 0.00 | 0.00 | 0.00 | 63 | 1009.0 |
| 20260904201009 | 76 | 300 | 11.3 | 0.0 | 0.00 | 0.00 | 0.00 | 63 | 1009.0 |
| 20260904200508 | 76 | 296 | 9.6 | 0.0 | 0.00 | 0.00 | 0.00 | 62 | 1008.9 |
| 20260904200010 | 76 | 319 | 8.7 | 0.0 | 0.00 | 0.00 | 0.00 | 62 | 1008.9 |
| 20260904195509 | 76 | 320 | 8.7 | 0.0 | 0.00 | 0.00 | 0.00 | 61 | 1009.0 |
| 20260904195008 | 77 | 312 | 7.8 | 0.0 | 0.00 | 0.00 | 0.00 | 62 | 1009.0 |
| 20260904194508 | 77 | 340 | 7.8 | 0.0 | 0.00 | 0.00 | 0.00 | 62 | 1009.0 |
| 20260904194008 | 76 | 324 | 9.6 | 0.0 | 0.00 | 0.00 | 0.00 | 61 | 1009.0 |
| 20260904193508 | 76 | 330 | 9.6 | 0.0 | 0.00 | 0.00 | 0.00 | 61 | 1008.9 |
| 20260904193014 | 76 | 334 | 9.6 | 0.0 | 0.00 | 0.00 | 0.00 | 63 | 1008.9 |
| 20260904192506 | 76 | 320 | 10.4 | 0.0 | 0.00 | 0.00 | 0.00 | 63 | 1008.9 |
| 20260904192005 | 76 | 314 | 10.4 | 0.0 | 0.00 | 0.00 | 0.00 | 62 | 1008.9 |
| 20260904191505 | 76 | 306 | 10.4 | 0.0 | 0.00 | 0.00 | 0.00 | 57 | 1009.2 |
| 20260904191004 | 76 | 299 | 8.7 | 0.0 | 0.00 | 0.00 | 0.00 | 63 | 1009.2 |
| 20260904190503 | 76 | 303 | 7.8 | 0.0 | 0.00 | 0.00 | 0.00 | 64 | 1009.2 |
| 20260904190002 | 76 | 312 | 8.7 | 0.0 | 0.00 | 0.00 | 0.00 | 63 | 1009.2 |
| 20260904185502 | 76 | 315 | 9.6 | 0.0 | 0.00 | 0.00 | 0.00 | 62 | 1009.2 |
| 20260904185002 | 76 | 309 | 9.6 | 0.0 | 0.00 | 0.00 | 0.00 | 64 | 1009.3 |
| 20260904184502 | 76 | 315 | 8.7 | 0.0 | 0.00 | 0.00 | 0.00 | 64 | 1009.4 |
| 20260904184002 | 76 | 319 | 7.8 | 0.0 | 0.00 | 0.00 | 0.00 | 62 | 1009.6 |
| 20260904183601 | 76 | 319 | 8.7 | 0.0 | 0.00 | 0.00 | 0.00 | 62 | 1009.6 |
| 20260904183114 | 76 | 324 | 8.7 | 0.0 | 0.00 | 0.00 | 0.00 | 65 | 1009.7 |
| 20260904182600 | 76 | 331 | 9.6 | 0.0 | 0.00 | 0.00 | 0.00 | 62 | 1009.8 |
| 20260904182100 | 77 | 327 | 8.7 | 0.0 | 0.00 | 0.00 | 0.00 | 64 | 1009.7 |
| 20260904181602 | 77 | 317 | 7.8 | 0.0 | 0.00 | 0.00 | 0.00 | 65 | 1009.8 |
| 20260904181059 | 77 | 331 | 7.8 | 0.0 | 0.00 | 0.00 | 0.00 | 62 | 1009.9 |
| 20260904180601 | 77 | 327 | 7.8 | 0.0 | 0.00 | 0.00 | 0.00 | 69 | 1009.9 |
| 20260904175556 | 76 | 296 | 7.8 | 0.0 | 0.00 | 0.00 | 0.00 | 67 | 1009.9 |
| 20260904175055 | 76 | 292 | 7.8 | 0.0 | 0.00 | 0.00 | 0.00 | 65 | 1009.9 |
| 20260904174555 | 76 | 299 | 7.8 | 0.0 | 0.00 | 0.00 | 0.00 | 68 | 1009.8 |
| 20260904174055 | 75 | 298 | 7.8 | 0.0 | 0.00 | 0.00 | 0.00 | 63 | 1009.9 |
| 20260904173553 | 75 | 294 | 7.8 | 0.0 | 0.00 | 0.00 | 0.00 | 64 | 1009.9 |
| 20260904173053 | 75 | 315 | 9.6 | 0.0 | 0.00 | 0.00 | 0.00 | 63 | 1010.0 |
| 20260904172553 | 75 | 326 | 9.6 | 0.0 | 0.00 | 0.00 | 0.00 | 67 | 1010.0 |
| 20260904172054 | 75 | 319 | 8.7 | 0.0 | 0.00 | 0.00 | 0.00 | 67 | 1010.0 |
| 20260904171554 | 75 | 322 | 8.7 | 0.0 | 0.00 | 0.00 | 0.00 | 65 | 1010.0 |
| 20260904171053 | 75 | 313 | 7.0 | 0.0 | 0.00 | 0.00 | 0.00 | 61 | 1010.0 |
| 20260904170552 | 75 | 314 | 5.2 | 0.0 | 0.00 | 0.00 | 0.00 | 61 | 1010.0 |
| 20260904170053 | 75 | 299 | 4.3 | 0.0 | 0.00 | 0.00 | 0.00 | 62 | 1010.0 |
| 20260904165550 | 75 | 294 | 3.5 | 0.0 | 0.00 | 0.00 | 0.00 | 63 | 1010.0 |
| 20260904165049 | 74 | 309 | 1.7 | 0.0 | 0.00 | 0.00 | 0.00 | 65 | 1009.9 |
| 20260904164548 | 74 | 275 | 1.7 | 0.0 | 0.00 | 0.00 | 0.00 | 69 | 1009.8 |
| 20260904164047 | 74 | 275 | 1.7 | 0.0 | 0.00 | 0.00 | 0.00 | 68 | 1009.9 |
| 20260904163546 | 74 | 9 | 1.7 | 0.0 | 0.00 | 0.00 | 0.00 | 68 | 1010.0 |
| 20260904163051 | 73 | 9 | 2.6 | 0.0 | 0.00 | 0.00 | 0.00 | 66 | 1010.0 |
| 20260904162546 | 73 | 355 | 3.5 | 0.0 | 0.00 | 0.00 | 0.00 | 67 | 1010.0 |
| 20260904162046 | 73 | 11 | 4.3 | 0.0 | 0.00 | 0.00 | 0.00 | 67 | 1010.1 |
| 20260904161546 | 73 | 342 | 4.3 | 0.0 | 0.00 | 0.00 | 0.00 | 67 | 1010.3 |
| 20260904161044 | 73 | 337 | 2.6 | 0.0 | 0.00 | 0.00 | 0.00 | 68 | 1010.4 |
| 20260904160543 | 73 | 331 | 0.9 | 0.0 | 0.00 | 0.00 | 0.00 | 70 | 1010.5 |
| 20260904160043 | 73 | 339 | 0.0 | 0.0 | 0.00 | 0.00 | 0.00 | 72 | 1010.5 |
| 20260904155542 | 73 | 338 | 1.7 | 0.0 | 0.00 | 0.00 | 0.00 | 73 | 1010.5 |
| 20260904155045 | 72 | 310 | 1.7 | 0.0 | 0.00 | 0.00 | 0.00 | 74 | 1010.5 |
| 20260904154540 | 72 | 309 | 2.6 | 0.0 | 0.00 | 0.00 | 0.00 | 74 | 1010.7 |
| 20260904154039 | 72 | 329 | 1.7 | 0.0 | 0.00 | 0.00 | 0.00 | 72 | 1010.8 |
| 20260904153537 | 71 | 202 | 0.0 | 0.0 | 0.00 | 0.00 | 0.00 | 78 | 1010.8 |
| 20260904153048 | 71 | 253 | 0.9 | 0.0 | 0.00 | 0.00 | 0.00 | 75 | 1010.8 |
| 20260904152535 | 71 | 253 | 0.9 | 0.0 | 0.00 | 0.00 | 0.00 | 80 | 1010.7 |
| 20260904152034 | 70 | 252 | 0.0 | 0.0 | 0.00 | 0.00 | 0.00 | 77 | 1010.8 |
| 20260904151534 | 70 | 252 | 1.7 | 0.0 | 0.00 | 0.00 | 0.00 | 77 | 1010.8 |
| 20260904151034 | 70 | 252 | 2.6 | 0.0 | 0.00 | 0.00 | 0.00 | 84 | 1011.0 |
| 20260904150535 | 70 | 264 | 1.7 | 0.0 | 0.00 | 0.00 | 0.00 | 82 | 1011.3 |
| 20260904150031 | 69 | 280 | 1.7 | 0.0 | 0.00 | 0.00 | 0.00 | 82 | 1011.3 |
| 20260904145531 | 69 | 279 | 1.7 | 0.0 | 0.00 | 0.00 | 0.00 | 83 | 1011.1 |
| 20260904145030 | 69 | 279 | 2.6 | 0.0 | 0.00 | 0.00 | 0.00 | 82 | 1011.1 |
| 20260904144531 | 68 | 279 | 2.6 | 0.0 | 0.00 | 0.00 | 0.00 | 83 | 1011.1 |
| 20260904144027 | 68 | 279 | 1.7 | 0.0 | 0.00 | 0.00 | 0.00 | 84 | 1011.2 |
| 20260904143526 | 68 | 265 | 1.7 | 0.0 | 0.00 | 0.00 | 0.00 | 85 | 1011.2 |
| 20260904143025 | 68 | 265 | 1.7 | 0.0 | 0.00 | 0.00 | 0.00 | 85 | 1011.2 |
| 20260904142524 | 67 | 264 | 1.7 | 0.0 | 0.00 | 0.00 | 0.00 | 86 | 1011.3 |
| 20260904142024 | 67 | 264 | 2.6 | 0.0 | 0.00 | 0.00 | 0.00 | 87 | 1011.2 |
| 20260904141523 | 67 | 262 | 2.6 | 0.0 | 0.00 | 0.00 | 0.00 | 87 | 1011.1 |
| 20260904141021 | 67 | 274 | 2.6 | 0.0 | 0.00 | 0.00 | 0.00 | 87 | 1011.1 |
| 20260904140520 | 66 | 319 | 1.7 | 0.0 | 0.00 | 0.00 | 0.00 | 89 | 1011.0 |
| 20260904140020 | 66 | 311 | 0.9 | 0.0 | 0.00 | 0.00 | 0.00 | 88 | 1011.0 |
| 20260904135519 | 66 | 311 | 0.9 | 0.0 | 0.00 | 0.00 | 0.00 | 87 | 1011.0 |
| 20260904135019 | 66 | 312 | 0.9 | 0.0 | 0.00 | 0.00 | 0.00 | 88 | 1011.0 |
| 20260904134522 | 65 | 312 | 0.9 | 0.0 | 0.00 | 0.00 | 0.00 | 88 | 1010.9 |
| 20260904134017 | 65 | 312 | 1.7 | 0.0 | 0.00 | 0.00 | 0.00 | 88 | 1010.9 |
| 20260904133516 | 65 | 312 | 2.6 | 0.0 | 0.00 | 0.00 | 0.00 | 88 | 1011.0 |
| 20260904133016 | 65 | 311 | 2.6 | 0.0 | 0.00 | 0.00 | 0.00 | 88 | 1011.1 |
| 20260904132517 | 65 | 314 | 1.7 | 0.0 | 0.00 | 0.00 | 0.00 | 89 | 1011.0 |
| 20260904132015 | 65 | 338 | 1.7 | 0.0 | 0.00 | 0.00 | 0.00 | 90 | 1010.8 |
| 20260904131515 | 65 | 338 | 1.7 | 0.0 | 0.00 | 0.00 | 0.00 | 91 | 1010.9 |
| 20260904131015 | 65 | 350 | 0.9 | 0.0 | 0.00 | 0.00 | 0.00 | 91 | 1010.9 |
| 20260904130515 | 65 | 351 | 0.9 | 0.0 | 0.00 | 0.00 | 0.00 | 91 | 1011.0 |
| 20260904130032 | 64 | 351 | 2.6 | 0.0 | 0.00 | 0.00 | 0.00 | 92 | 1011.1 |
| 20260904125513 | 64 | 351 | 2.6 | 0.0 | 0.00 | 0.00 | 0.00 | 94 | 1011.1 |
| 20260904125013 | 63 | 5 | 3.5 | 0.0 | 0.00 | 0.00 | 0.00 | 97 | 1011.0 |
| 20260904124510 | 63 | 360 | 2.6 | 0.0 | 0.00 | 0.00 | 0.00 | 97 | 1011.2 |
| 20260904124008 | 62 | 355 | 0.9 | 0.0 | 0.00 | 0.00 | 0.00 | 97 | 1011.2 |
| 20260904123509 | 62 | 115 | 0.0 | 0.0 | 0.00 | 0.00 | 0.00 | 97 | 1011.0 |
| 20260904123016 | 61 | 115 | 0.0 | 0.0 | 0.00 | 0.00 | 0.00 | 97 | 1011.1 |
| 20260904122508 | 61 | 115 | 0.0 | 0.0 | 0.00 | 0.00 | 0.00 | 97 | 1011.1 |
| 20260904122008 | 61 | 115 | 0.0 | 0.0 | 0.00 | 0.00 | 0.00 | 97 | 1011.1 |
| 20260904121507 | 61 | 115 | 0.9 | 0.0 | 0.00 | 0.00 | 0.00 | 97 | 1011.1 |
| 20260904121007 | 60 | 115 | 1.7 | 0.0 | 0.00 | 0.00 | 0.00 | 97 | 1011.1 |
| 20260904120511 | 60 | 115 | 1.7 | 0.0 | 0.00 | 0.00 | 0.00 | 97 | 1011.1 |
| 20260904120008 | 60 | 94 | 0.9 | 0.0 | 0.00 | 0.00 | 0.00 | 97 | 1011.1 |
| 20260904115507 | 59 | 130 | 0.9 | 0.0 | 0.00 | 0.00 | 0.00 | 97 | 1011.1 |
| 20260904115009 | 58 | 130 | 0.9 | 0.0 | 0.00 | 0.00 | 0.00 | 97 | 1011.2 |
| 20260904114506 | 58 | 133 | 0.9 | 0.0 | 0.00 | 0.00 | 0.00 | 97 | 1011.1 |
| 20260904114008 | 58 | 133 | 0.9 | 0.0 | 0.00 | 0.00 | 0.00 | 96 | 1011.0 |
| 20260904113505 | 57 | 133 | 1.7 | 0.0 | 0.00 | 0.00 | 0.00 | 96 | 1011.0 |
| 20260904113005 | 57 | 133 | 1.7 | 0.0 | 0.00 | 0.00 | 0.00 | 96 | 1011.0 |
| 20260904112504 | 57 | 133 | 1.7 | 0.0 | 0.00 | 0.00 | 0.00 | 96 | 1011.0 |
| 20260904112002 | 57 | 133 | 1.7 | 0.0 | 0.00 | 0.00 | 0.00 | 96 | 1010.9 |
| 20260904111502 | 57 | 133 | 2.6 | 0.0 | 0.00 | 0.00 | 0.00 | 96 | 1010.7 |
| 20260904111003 | 57 | 133 | 2.6 | 0.0 | 0.00 | 0.00 | 0.00 | 96 | 1010.7 |
| 20260904110502 | 57 | 133 | 3.5 | 0.0 | 0.00 | 0.00 | 0.00 | 96 | 1010.7 |
| 20260904110002 | 57 | 133 | 3.5 | 0.0 | 0.00 | 0.00 | 0.00 | 96 | 1010.7 |
| 20260904105500 | 57 | 134 | 2.6 | 0.0 | 0.00 | 0.00 | 0.00 | 95 | 1010.7 |
| 20260904105002 | 56 | 134 | 2.6 | 0.0 | 0.00 | 0.00 | 0.00 | 95 | 1010.6 |
| 20260904104601 | 56 | 134 | 2.6 | 0.0 | 0.00 | 0.00 | 0.00 | 95 | 1010.5 |
| 20260904104101 | 56 | 135 | 3.5 | 0.0 | 0.00 | 0.00 | 0.00 | 95 | 1010.5 |
| 20260904103559 | 56 | 130 | 2.6 | 0.0 | 0.00 | 0.00 | 0.00 | 95 | 1010.5 |
| 20260904103059 | 56 | 132 | 2.6 | 0.0 | 0.00 | 0.00 | 0.00 | 95 | 1010.4 |
| 20260904102602 | 56 | 131 | 2.6 | 0.0 | 0.00 | 0.00 | 0.00 | 95 | 1010.3 |
| 20260904102059 | 57 | 131 | 3.5 | 0.0 | 0.00 | 0.00 | 0.00 | 95 | 1010.2 |
| 20260904101603 | 57 | 130 | 3.5 | 0.0 | 0.00 | 0.00 | 0.00 | 95 | 1010.1 |
| 20260904101058 | 57 | 130 | 3.5 | 0.0 | 0.00 | 0.00 | 0.00 | 95 | 1010.0 |
| 20260904100558 | 57 | 130 | 3.5 | 0.0 | 0.00 | 0.00 | 0.00 | 95 | 1010.0 |
| 20260904100057 | 57 | 130 | 3.5 | 0.0 | 0.00 | 0.00 | 0.00 | 95 | 1010.0 |
| 20260904095556 | 57 | 134 | 3.5 | 0.0 | 0.00 | 0.00 | 0.00 | 95 | 1009.9 |
| 20260904095057 | 57 | 134 | 3.5 | 0.0 | 0.00 | 0.00 | 0.00 | 95 | 1009.9 |
| 20260904094556 | 57 | 132 | 3.5 | 0.0 | 0.00 | 0.00 | 0.00 | 95 | 1009.9 |
| 20260904094057 | 57 | 128 | 2.6 | 0.0 | 0.00 | 0.00 | 0.00 | 95 | 1009.9 |
| 20260904093555 | 57 | 142 | 2.6 | 0.0 | 0.00 | 0.00 | 0.00 | 95 | 1009.9 |
| 20260904093055 | 57 | 144 | 3.5 | 0.0 | 0.00 | 0.00 | 0.00 | 95 | 1009.9 |
| 20260904092557 | 57 | 144 | 2.6 | 0.0 | 0.00 | 0.00 | 0.00 | 94 | 1009.8 |
| 20260904092055 | 57 | 132 | 2.6 | 0.0 | 0.00 | 0.00 | 0.00 | 95 | 1009.8 |
| 20260904091555 | 57 | 132 | 2.6 | 0.0 | 0.00 | 0.00 | 0.00 | 95 | 1009.8 |
| 20260904091057 | 57 | 132 | 3.5 | 0.0 | 0.00 | 0.00 | 0.00 | 95 | 1009.8 |
| 20260904090552 | 57 | 136 | 2.6 | 0.0 | 0.00 | 0.00 | 0.00 | 95 | 1009.8 |
| 20260904090054 | 57 | 136 | 2.6 | 0.0 | 0.00 | 0.00 | 0.00 | 94 | 1009.7 |
| 20260904085552 | 57 | 137 | 3.5 | 0.0 | 0.00 | 0.00 | 0.00 | 94 | 1009.4 |
| 20260904085052 | 58 | 137 | 3.5 | 0.0 | 0.00 | 0.00 | 0.00 | 94 | 1009.5 |
| 20260904084552 | 58 | 132 | 3.5 | 0.0 | 0.00 | 0.00 | 0.00 | 94 | 1009.6 |
| 20260904084050 | 58 | 134 | 3.5 | 0.0 | 0.00 | 0.00 | 0.00 | 95 | 1009.6 |
| 20260904083550 | 58 | 134 | 3.5 | 0.0 | 0.00 | 0.00 | 0.00 | 95 | 1009.6 |
| 20260904083052 | 58 | 134 | 3.5 | 0.0 | 0.00 | 0.00 | 0.00 | 95 | 1009.6 |
| 20260904082549 | 58 | 134 | 3.5 | 0.0 | 0.00 | 0.00 | 0.00 | 95 | 1009.6 |
| 20260904082050 | 58 | 136 | 3.5 | 0.0 | 0.00 | 0.00 | 0.00 | 95 | 1009.4 |
| 20260904081554 | 58 | 133 | 2.6 | 0.0 | 0.00 | 0.00 | 0.00 | 95 | 1009.5 |
| 20260904081048 | 58 | 133 | 2.6 | 0.0 | 0.00 | 0.00 | 0.00 | 95 | 1009.5 |
| 20260904080549 | 58 | 133 | 3.5 | 0.0 | 0.00 | 0.00 | 0.00 | 95 | 1009.5 |
| 20260904080048 | 58 | 133 | 2.6 | 0.0 | 0.00 | 0.00 | 0.00 | 95 | 1009.4 |
| 20260904075548 | 58 | 131 | 2.6 | 0.0 | 0.00 | 0.00 | 0.00 | 95 | 1009.4 |
| 20260904075047 | 58 | 131 | 2.6 | 0.0 | 0.00 | 0.00 | 0.00 | 95 | 1009.5 |
| 20260904074547 | 59 | 132 | 2.6 | 0.0 | 0.00 | 0.00 | 0.00 | 95 | 1009.5 |
| 20260904074047 | 59 | 130 | 3.5 | 0.0 | 0.00 | 0.00 | 0.00 | 95 | 1009.6 |
| 20260904073549 | 59 | 129 | 3.5 | 0.0 | 0.00 | 0.00 | 0.00 | 95 | 1009.5 |
| 20260904073046 | 59 | 133 | 2.6 | 0.0 | 0.00 | 0.00 | 0.00 | 94 | 1009.4 |
| 20260904072545 | 59 | 134 | 3.5 | 0.0 | 0.00 | 0.00 | 0.00 | 94 | 1009.4 |
| 20260904072044 | 59 | 126 | 3.5 | 0.0 | 0.00 | 0.00 | 0.00 | 94 | 1009.4 |
| 20260904071544 | 59 | 125 | 3.5 | 0.0 | 0.00 | 0.00 | 0.00 | 94 | 1009.5 |
| 20260904071044 | 59 | 143 | 2.6 | 0.0 | 0.00 | 0.00 | 0.00 | 94 | 1009.6 |
| 20260904070544 | 59 | 144 | 2.6 | 0.0 | 0.00 | 0.00 | 0.00 | 94 | 1009.7 |
| 20260904070043 | 59 | 146 | 2.6 | 0.0 | 0.00 | 0.00 | 0.00 | 94 | 1009.8 |
| 20260904065542 | 59 | 137 | 2.6 | 0.0 | 0.00 | 0.00 | 0.00 | 94 | 1009.9 |
| 20260904065042 | 59 | 130 | 2.6 | 0.0 | 0.00 | 0.00 | 0.00 | 94 | 1009.7 |
| 20260904064542 | 59 | 130 | 2.6 | 0.0 | 0.00 | 0.00 | 0.00 | 94 | 1009.8 |
| 20260904064042 | 59 | 134 | 3.5 | 0.0 | 0.00 | 0.00 | 0.00 | 94 | 1009.6 |
| 20260904063544 | 59 | 135 | 2.6 | 0.0 | 0.00 | 0.00 | 0.00 | 94 | 1009.6 |
| 20260904063043 | 60 | 136 | 2.6 | 0.0 | 0.00 | 0.00 | 0.00 | 94 | 1009.6 |
| 20260904062540 | 60 | 137 | 2.6 | 0.0 | 0.00 | 0.00 | 0.00 | 94 | 1009.8 |
| 20260904062039 | 60 | 130 | 3.5 | 0.0 | 0.00 | 0.00 | 0.00 | 94 | 1009.7 |
| 20260904061544 | 60 | 123 | 4.3 | 0.0 | 0.00 | 0.00 | 0.00 | 94 | 1009.7 |
| 20260904061037 | 60 | 143 | 4.3 | 0.0 | 0.00 | 0.00 | 0.00 | 94 | 1009.8 |
| 20260904060539 | 60 | 130 | 4.3 | 0.0 | 0.00 | 0.00 | 0.00 | 94 | 1009.8 |
| 20260904060037 | 60 | 133 | 3.5 | 0.0 | 0.00 | 0.00 | 0.00 | 94 | 1009.8 |